Home   Weather   Woodstock   Past weeks

Flag for USA Past Weather in Woodstock, New York, USA — Yesterday and Last 2 Weeks

Now
56 °F

Light rain. Overcast.


Feels Like: 54 °F
Forecast: 49 / 57 °F
Wind: 9 mph from North

Location: Dutchess County Airport

Current Time: Sep 30, 2016 at 6:08:50 PM

Latest Report: Sep 30, 2016 at 4:53 PM


Visibility: 8 mi

Pressure: 30.29 "Hg

Humidity: 90%

Dew Point: 53 °F

Location of WoodstockLocation

Past Weather in Woodstock — Graph

°F

Woodstock Temperature Yesterday

Maximum temperature yesterday: 67 °F (at 1:53 PM)
Minimum temperature yesterday: 56 °F (at 12:53 AM)
Average temperature yesterday: 60 °F

High & Low Weather Summary for the Past Weeks

 TemperatureHumidityPressure
High84 °F (Sep 22, 2:53 PM)100% (Sep 17, 5:53 AM)30.41 "Hg (Sep 17, 5:53 AM)
Low35 °F (Sep 26, 6:53 AM)22% (Sep 25, 3:53 PM)29.85 "Hg (Sep 27, 4:53 PM)
Average62 °F74%30.13 "Hg
* Reported Sep 15 4:53 PM — Sep 30 4:53 PM, Woodstock, Weather by CustomWeather, © 2016

Note: Actual official high and low records may vary slightly from our data, if they occured in-between our weather recording intervals... More about our weather records

Advertising

Woodstock Weather History for the Previous 24 Hours

Scroll right to see more
 ConditionsComfort  
Time TempWeatherWind HumidityBarometerVisibility
4:53 PM
Fri, Sep 30
56 °FLight rain. Overcast.9 mph90%30.29 "Hg8 mi
3:53 PM57 °FOvercast.12 mph90%30.29 "Hg10 mi
2:53 PM57 °FRain. Fog.10 mph90%30.31 "Hg2 mi
1:53 PM60 °FCloudy.13 mph69%30.31 "Hg6 mi
12:53 PM62 °FMostly cloudy.14 mph62%30.32 "Hg10 mi
11:53 AM61 °FOvercast.13 mph62%30.34 "Hg10 mi
10:53 AM61 °FMostly cloudy.13 mph62%30.35 "Hg10 mi
9:53 AM59 °FMostly cloudy.9 mph67%30.36 "Hg10 mi
8:53 AM56 °FCloudy.9 mph72%30.36 "Hg10 mi
7:53 AM56 °FLight rain. More clouds than sun.12 mph70%30.36 "Hg10 mi
6:53 AM55 °FPartly sunny.13 mph72%30.36 "Hg10 mi
5:53 AM55 °FPassing clouds.9 mph72%30.37 "Hg10 mi
4:53 AM54 °FPassing clouds.9 mph74%30.37 "Hg10 mi
3:53 AM54 °FPassing clouds.6 mph74%30.37 "Hg10 mi
2:53 AM54 °FPassing clouds.7 mph74%30.38 "Hg10 mi
1:53 AM55 °FPassing clouds.5 mph69%30.40 "Hg10 mi
12:53 AM56 °FClear.6 mph65%30.40 "Hg10 mi
11:53 PM
Thu, Sep 29
56 °FClear.8 mph65%30.39 "Hg10 mi
10:53 PM57 °FClear.7 mph64%30.41 "Hg10 mi
9:53 PM58 °FClear.7 mph62%30.40 "Hg10 mi
8:53 PM59 °FClear.6 mph60%30.39 "Hg10 mi
7:53 PM60 °FClear.6 mph58%30.38 "Hg10 mi
6:53 PM60 °FClear.10 mph58%30.37 "Hg10 mi
Weather by CustomWeather, © 2016

See weather overviewHow to use our weather pages